Regional Weather Roundup
Issued by NWS

Home | Current Version | Previous Version | Graphics & Text | Print | Product List | Glossary On
Versions: 1 2 3 4 5 6 7 8 9 10 11 12 13 14 15 16 17 18 19 20 21 22 23 24 25 26 27 28 29 30 31 32 33 34 35 36 37 38 39 40 41 42 43 44 45 46 47 48 49 50
930
ASUS43 KFSD 081402
RWRSD

WEATHER ROUNDUP FOR SOUTH DAKOTA
NATIONAL WEATHER SERVICE SIOUX FALLS SD
800 AM CST THU DEC 08 2016

NOTE: "FAIR" INDICATES FEW OR NO CLOUDS BELOW 12,000 FEET WITH NO
SIGNIFICANT WEATHER AND/OR OBSTRUCTIONS TO VISIBILITY.


SDZ001>005-009-010-012>017-081500-
NORTHWEST AND NORTH CENTRAL SOUTH DAKOTA

CITY           SKY/WX    TMP DP  RH WIND       PRES   REMARKS
BUFFALO          N/A     -8 -13  78 W8        30.47R WCI -24
FAITH            N/A     -5  -8  87 NW14      30.59R WCI -25
MOBRIDGE       CLOUDY     5  -4  66 NW23      30.56R WCI -17
$$

SDZ012>016-024>037-041>051-057-063-072>074-081500-
SOUTHWEST AND SOUTH CENTRAL SOUTH DAKOTA

CITY           SKY/WX    TMP DP  RH WIND       PRES   REMARKS
RAPID CTY ARPT CLEAR     -5 -11  75 N6        30.56R WCI -18
PIERRE         MOCLDY     6  -1  73 NW21G28   30.61R WCI -14
CUSTER         CLOUDY    -1 -13  56 NW5       30.31R WCI -11
ELLSWORTH AFB  CLEAR     -3 -11  71 CALM      30.54R
PINE RIDGE     CLOUDY   -16 -20  82 E3        30.56R
SPEARFISH      FAIR      -2 -11  65 W8        30.49R WCI -17
WINNER         CLOUDY     7  -2  66 NW20G28   30.61R WCI -13
$$

SDZ004>011-016>023-039-040-081500-
NORTHEAST SOUTH DAKOTA

CITY           SKY/WX    TMP DP  RH WIND       PRES   REMARKS
ABERDEEN       CLOUDY     9   1  70 NW20      30.55R WCI -10
WATERTOWN      CLOUDY     5   1  83 NW16G25   30.44R FOG     WCI -14
SISSETON         N/A      9   3  77 NW24      30.45R WCI -12
$$

SDZ017-020-022-023-036>040-048>070-081500-
SOUTHEAST SOUTH DAKOTA

CITY           SKY/WX    TMP DP  RH WIND       PRES   REMARKS
SIOUX FALLS    NOT AVBL
HURON          NOT AVBL
MITCHELL       CLEAR      7   1  76 NW17      30.59R WCI -12
YANKTON        CLEAR      9   0  66 W20G29    30.56R WCI -11
$$

ABBREVIATIONS USED IN REMARKS
   TC - TEMPERATURE IN CELSIUS
  WCI - WIND CHILL INDEX
   HX - HEAT INDEX
  VSB - VISIBILITY





USA.gov is the U.S. government's official web portal to all federal, state and local government web resources and services.